Mitchell, SD

1:01 AM CDT on October 21, 2019 (GMT -0500)
Mitchell Municipal

Weather History for KMHE - August, 2019

Change the Weather History Date:

Tuesday, August 6, 2019

  Actual Average Record
Temperature  
Mean Temperature 77 °F 73 °F  
Max Temperature 89 °F 85 °F 103 °F (1933)
Min Temperature 64 °F 62 °F 45 °F (1902)
Degree Days  
Heating Degree Days 0 0  
Month to date heating degree days 0 0  
Since 1 June heating degree days 16 40  
Since 1 July heating degree days 0 5  
Cooling Degree Days 12 9  
Month to date cooling degree days 59 54  
Year to date cooling degree days 639 572  
Since 1 June cooling degree days 620 532  
Growing Degree Days 26 (Base 50)    
Moisture  
Dew Point 63 °F    
Average Humidity 66    
Maximum Humidity 93    
Minimum Humidity 38    
Precipitation  
Precipitation T in 0.08 in 1.20 in (2014)
Month to date precipitation 1.24 0.41  
Year to date precipitation 22.16 14.38  
Snow  
Snow 0.00 in - 0.00 in ()
Month to date snowfall 0.0  
Since 1 June snowfall 0.0  
Since 1 July snowfall 0.0  
Snow Depth 0.00 in    
Sea Level Pressure  
Sea Level Pressure 29.90 in    
Wind  
Wind Speed 7 mph (SSW)    
Max Wind Speed 16 mph    
Max Gust Speed 21 mph    
Visibility 10 miles    
Events Rain , Thunderstorm    
T = Trace of Precipitation, MM = Missing Value Source: NWS Daily Summary

Daily Weather History Graph

Daily Weather History Graph

Search for Another Location

Airport or City:

Astronomy

Aug. 06, 2019 Rise Set
Actual Time 6:26 AM CDT 8:49 PM CDT
Civil Twilight 5:54 AM CDT 9:21 PM CDT
Nautical Twilight 5:13 AM CDT 10:01 PM CDT
Astronomical Twilight 4:28 AM CDT 10:45 PM CDT
Moon 1:05 PM CDT (8/6) No Moon Set
Length of Visible Light 15h 27m
Length of Day
14h 22m
Waxing Crescent, 39% of the Moon is Illuminated
Aug 6
Waxing Crescent
Aug 7
First Quarter
Aug 15
Full
Aug 23
Last Quarter
Aug 30
New

Hourly Weather History & Observations

Time (CDT) Temp. Heat Index Dew Point Humidity Pressure Visibility Wind Dir Wind Speed Gust Speed Precip Events Conditions
12:53 AM 68.0 °F - 64.0 °F 87% 29.96 in 10.0 mi WSW 3.5 mph - N/A   Clear
1:53 AM 66.9 °F - 63.0 °F 87% 29.95 in 10.0 mi West 4.6 mph - N/A   Clear
2:53 AM 64.9 °F - 62.1 °F 90% 29.96 in 10.0 mi WSW 5.8 mph - N/A   Clear
3:53 AM 66.0 °F - 62.1 °F 87% 29.96 in 10.0 mi West 5.8 mph - N/A   Clear
4:53 AM 64.9 °F - 62.1 °F 90% 29.96 in 10.0 mi West 4.6 mph - N/A   Clear
5:53 AM 66.0 °F - 62.1 °F 87% 29.95 in 10.0 mi WSW 4.6 mph - N/A   Clear
6:53 AM 64.9 °F - 62.1 °F 90% 29.95 in 10.0 mi SW 3.5 mph - N/A   Clear
7:53 AM 69.1 °F - 64.0 °F 84% 29.95 in 10.0 mi SW 4.6 mph - N/A   Clear
8:53 AM 73.0 °F - 64.9 °F 76% 29.96 in 10.0 mi WSW 5.8 mph - N/A   Clear
9:53 AM 77.0 °F - 64.0 °F 64% 29.96 in 10.0 mi WSW 9.2 mph - N/A   Clear
10:53 AM 80.1 °F 81.2 °F 62.1 °F 54% 29.95 in 10.0 mi WSW 10.4 mph - N/A   Clear
11:53 AM 82.9 °F 84.0 °F 63.0 °F 51% 29.93 in 10.0 mi SW 6.9 mph - N/A   Clear
12:53 PM 84.9 °F 84.8 °F 60.1 °F 43% 29.91 in 10.0 mi SW 9.2 mph - N/A   Clear
1:53 PM 86.0 °F 86.1 °F 61.0 °F 43% 29.90 in 10.0 mi WSW 8.1 mph - N/A   Clear
2:53 PM 88.0 °F 87.9 °F 61.0 °F 40% 29.88 in 10.0 mi SSW 6.9 mph - N/A   Clear
3:53 PM 89.1 °F 88.8 °F 60.1 °F 38% 29.87 in 10.0 mi SW 6.9 mph - N/A   Clear
4:53 PM 89.1 °F 88.8 °F 60.1 °F 38% 29.84 in 10.0 mi SW 6.9 mph - N/A   Clear
5:53 PM 89.1 °F 89.3 °F 62.1 °F 40% 29.82 in 10.0 mi South 8.1 mph - N/A   Clear
6:53 PM 87.1 °F 86.7 °F 60.1 °F 40% 29.81 in 10.0 mi South 6.9 mph - N/A   Clear
7:53 PM 81.0 °F 82.5 °F 64.0 °F 56% 29.81 in 10.0 mi SE 4.6 mph - N/A   Clear
8:17 PM 79.0 °F - 66.0 °F 64% 29.85 in 10.0 mi ESE 4.6 mph - N/A Thunderstorm Thunderstorm
8:38 PM 80.1 °F 81.9 °F 64.9 °F 60% 29.88 in 10.0 mi East 4.6 mph - N/A   Mostly Cloudy
8:53 PM 78.1 °F - 66.9 °F 68% 29.81 in 10.0 mi SE 15.0 mph 20.7 mph 0.00 in Rain Light Rain
9:53 PM 78.1 °F - 64.9 °F 64% 29.85 in 10.0 mi East 5.8 mph - 0.00 in   Overcast
10:53 PM 75.0 °F - 66.0 °F 73% 29.87 in 10.0 mi East 8.1 mph - N/A   Clear
11:53 PM 73.9 °F - 62.1 °F 66% 29.79 in 10.0 mi SSE 12.7 mph - N/A   Clear